Regional Weather Roundup
Issued by NWS

Home | Current Version | Previous Version | Graphics & Text | Print | Product List | Glossary On
Versions: 1 2 3 4 5 6 7 8 9 10 11 12 13 14 15 16 17 18 19 20 21 22 23 24 25 26 27 28 29 30 31 32 33 34 35 36 37 38 39 40 41 42 43 44 45 46 47 48 49 50
000
ASUS43 KMPX 260010
RWRMN
WEATHER ROUNDUP FOR MINNESOTA
NATIONAL WEATHER SERVICE TWIN CITIES/CHANHASSEN MN
700 PM CDT FRI JUL 25 2014


NOTE: "FAIR" INDICATES FEW OR NO CLOUDS BELOW 12,000 FEET WITH NO
SIGNIFICANT WEATHER AND/OR OBSTRUCTIONS TO VISIBILITY. N/A MEANS
CURRENT SKY AND/OR WEATHER CONDITIONS ARE NOT AVAILABLE.

MNZ060>063-068>070-260100-
   Twin Cities Metro

CITY           SKY/WX    TMP DP  RH WIND       PRES   REMARKS
TWIN CITIES    CLOUDY    79  68  69 SW8       29.77F
6HR MIN TEMP:  76; 6HR MAX TEMP:  81;

ST PAUL        CLOUDY    78  69  73 SW5       29.77S
CRYSTAL        CLOUDY    80  67  64 SW7       29.76S
BLAINE         CLOUDY    81  70  69 SW5         N/A
LAKEVILLE      CLOUDY    75  70  83 S5        29.77F
EDEN PRAIRIE   CLOUDY    78  69  73 SW7       29.76F
6HR MIN TEMP:  77; 6HR MAX TEMP:  81;

SOUTH ST PAUL  PTSUNNY   79  68  69 SW3       29.77R
LAKE ELMO      CLOUDY    77  70  78 CALM      29.79R
$$
MNZ001>005-007-008-013>017-022>024-027-028-260100-
   Northwest Minnesota

CITY           SKY/WX    TMP DP  RH WIND       PRES   REMARKS
BEMIDJI        CLOUDY    76  67  74 S6        29.74F
HALLOCK        SUNNY     79  48  34 W12       29.71R
ROSEAU         MOSUNNY   77  63  61 NW10      29.71R
WARROAD        CLOUDY    73  70  88 N5        29.71R
THIEF RVR FALL SUNNY     77  57  50 W13       29.73S
CROOKSTON      SUNNY     77  59  53 NW8       29.74R
FOSSTON        PTSUNNY   75  66  73 W9        29.75S
DETROIT LAKES  CLOUDY    77  68  73 W5        29.78S
MOORHEAD       MOSUNNY   81  72  74 N8        29.75S
PARK RAPIDS    CLOUDY    76  68  76 SW3       29.75F
$$
MNZ006-009>011-018-025>026-260100-
   North Central Minnesota

CITY           SKY/WX    TMP DP  RH WIND       PRES   REMARKS
BAUDETTE       PTSUNNY   77  67  71 S6        29.72S
FLAG ISLAND    MOSUNNY   73  66  78 S9        29.68F
INTL FALLS     PTSUNNY   74  65  73 VRB5      29.72F
6HR MIN TEMP:  73; 6HR MAX TEMP:  75;

WASKISH        PTSUNNY   77  68  73 CALM      29.72F
BIG FORK       MOSUNNY   73  66  78 S6        29.76F
LONGVILLE      CLOUDY    75  70  83 CALM      29.76S
GRAND RAPIDS   CLOUDY    73  66  78 SE6       29.76F
CRANE LAKE     CLOUDY    70  64  83 S5        29.77R
ORR            MOSUNNY   72  63  73 S3        29.74F
COOK           CLOUDY    70  64  83 CALM      29.77F
$$
MNZ012-019>021-037-260100-
   Northeast Minnesota

CITY           SKY/WX    TMP DP  RH WIND       PRES   REMARKS
DULUTH         CLOUDY    69  64  84 SE9       29.79F
6HR MIN TEMP:  66; 6HR MAX TEMP:  69;

ELY            CLOUDY    70  63  78 SW5       29.78S
HIBBING        CLOUDY    74  66  76 SE5       29.77F
EVELETH        CLOUDY    72  64  78 S3        29.79S
DULUTH HARBOR  CLOUDY    63  61  94 E3        29.78F
TWO HARBORS    PTSUNNY   66  63  88 SW7       29.77F
SILVER BAY     MOSUNNY   66  66 100 S8        29.77F
GRAND MARAIS     N/A     57  54  89 CALM      29.77F
G MARAIS ARPRT MOSUNNY   64  57  77 S5        29.81F
$$
MNZ029>031-032-039>041-046>048-054>057-064-260100-
   West Central Minnesota

CITY           SKY/WX    TMP DP  RH WIND       PRES   REMARKS
FERGUS FALLS   CLOUDY    75  66  73 W6        29.75S
WHEATON        PTSUNNY   73  66  78 W7        29.78S
MORRIS         SUNNY     77  70  78 W5        29.76S
ALEXANDRIA     CLOUDY    75  67  76 NW5       29.79S
ELBOW LAKE     PTSUNNY   76  69  79 W3        29.76S
WADENA         MOSUNNY   75  66  73 CALM      29.76F
GLENWOOD       MOSUNNY   77  68  73 CALM      29.78S
APPLETON       MOSUNNY   81  68  65 NW7       29.76R
BENSON         MOSUNNY   79  70  73 N5        29.75F
ORTONVILLE     PTSUNNY   77  66  69 NW6       29.78R
MADISON        SUNNY     81  72  74 N8        29.77R
WILLMAR        FAIR      79  70  73 NE6       29.76F
$$
MNZ033>034-036-042>043-049>051-058-059-260100-
   Central Minnesota

CITY           SKY/WX    TMP DP  RH WIND       PRES   REMARKS
ST CLOUD       CLOUDY    80  70  71 S3        29.76F
6HR MIN TEMP:  79; 6HR MAX TEMP:  85;

SAUK CENTRE    CLOUDY    76  68  78 CALM      29.77F
PAYNESVILLE    HVY RAIN  75  68  78 CALM      29.77F
AITKIN         CLOUDY    79  70  73 SW6       29.75F
PINE RIVER     LGT RAIN  75  70  83 CALM      29.79S
BRAINERD       CLOUDY    73  68  84 S5        29.77S
STAPLES        CLOUDY    75  66  73 S6        29.77S
LONG PRAIRIE   CLOUDY    73  66  78 CALM      29.78S
LITTLE FALLS   PTSUNNY   75  64  69 CALM      29.77S
LITCHFIELD     CLOUDY    79  73  83 CALM      29.77S
BUFFALO        CLOUDY    78  67  70 CALM      29.77F
MAPLE LAKE     PTSUNNY   79  72  78 CALM      29.77F
$$
MNZ037-044-045-052-053-260100-
   East Central Minnesota

CITY           SKY/WX    TMP DP  RH WIND       PRES   REMARKS
PRINCETON      CLOUDY    79  70  73 CALM      29.77F
MORA           PTSUNNY   70  66  88 CALM      29.79F
CAMBRIDGE      PTSUNNY   75  66  73 CALM      29.76S
RUSH CITY      CLOUDY    74  67  81 CALM      29.78F
MOOSE LAKE     CLOUDY    73  68  83 S8        29.75F
HINCKLEY       CLOUDY    73  68  83 S6        29.78F
CLOQUET        CLOUDY    68  63  83 SE5       29.79S
MCGREGOR       CLOUDY    77  68  73 SW6       29.76F
$$
MNZ071>073-080-081-089-090-097-098-260100-
   Southwest Minnesota

CITY           SKY/WX    TMP DP  RH WIND       PRES   REMARKS
MONTEVIDEO     CLOUDY    81  72  74 NE6       29.76S
GRANITE FALLS  CLOUDY    79  71  76 CALM      29.76S
CANBY          CLOUDY    79  69  71 NW7       29.78R
MARSHALL       PTSUNNY   81  72  74 N7          N/A
REDWOOD FALLS  MOSUNNY   83  72  69 CALM      29.74F
OLIVIA         CLOUDY    81  70  69 CALM      29.74F
PIPESTONE      PTSUNNY   82  68  61 CALM      29.79S
WINDOM         MOSUNNY   82  70  65 S5        29.78S
WORTHINGTON    CLOUDY    81  72  74 CALM      29.80F
JACKSON        PTSUNNY   81  68  65 S6        29.79S
TRACY          MOSUNNY   84  71  64 CALM      29.76F
SLAYTON        MOSUNNY   82  70  67 CALM      29.79F
$$
MNZ065>067-074>077-082>085-091>093-260100-
   South Central Minnesota

CITY           SKY/WX    TMP DP  RH WIND       PRES   REMARKS
MANKATO        CLOUDY    77  66  69 S6        29.78S
NEW ULM        SUNNY     79  72  78 S7        29.76F
ST JAMES       SUNNY     81  70  69 SE6       29.78S
FAIRMONT       CLOUDY    79  61  53 S7        29.79S
GLENCOE        CLOUDY    80  68  67 S3        29.75F
FARIBAULT      CLOUDY    81  66  61 CALM      29.79F
OWATONNA       PTSUNNY   79  66  65 SW6       29.79F
WASECA         CLOUDY    77  64  65 SW7       29.81S
ALBERT LEA     CLOUDY    77  66  69 S7        29.79F
$$
MNZ078>079-086>088-094>096-260100-
   Southeast Minnesota

CITY           SKY/WX    TMP DP  RH WIND       PRES   REMARKS
ROCHESTER      CLOUDY    78  67  68 S9        29.82S
6HR MIN TEMP:  75; 6HR MAX TEMP:  80;

RED WING       CLOUDY    79  70  73 SE3       29.76F
STANTON        CLOUDY    78  69  74 SW5       29.77F
DODGE CENTER   CLOUDY    77  68  73 SW8       29.81S
WINONA         PTSUNNY   77  64  65 SE6       29.82S
AUSTIN         MOSUNNY   77  68  73 S9        29.80F
PRESTON        CLOUDY    74  71  88 S8        29.83F
$$
ABBREVIATIONS USED IN REMARKS
   TC - TEMPERATURES IN CELSIUS
  WCI - WIND CHILL INDEX
   HX - HEAT INDEX
  VSB - VISIBILITY
$$


USA.gov is the U.S. government's official web portal to all federal, state and local government web resources and services.